Weather History for KCBK - February, 2014

Change the Weather History Date:

Wednesday, February 12, 2014

  Actual Average (KGLD) Record (KGLD)
Temperature  
Mean Temperature 30 °F 32 °F  
Max Temperature 37 °F 44 °F 78 °F (1962)
Min Temperature 24 °F 19 °F -11 °F (1948)
Degree Days  
Heating Degree Days 34 34  
Month to date heating degree days 414  
Since 1 July heating degree days 3917  
Cooling Degree Days 0 0  
Month to date cooling degree days 0  
Year to date cooling degree days 0  
Moisture  
Dew Point 29 °F    
Average Humidity 88    
Maximum Humidity 100    
Minimum Humidity 75    
Precipitation  
Precipitation 0.00 in 0.02 in 0.48 in (1978)
Month to date precipitation 0.19  
Year to date precipitation 0.57  
Snow  
Snow 0.00 in 0.20 in - ()
Month to date snowfall 2.6  
Since 1 July snowfall 21.2  
Snow Depth -    
Sea Level Pressure  
Sea Level Pressure 30.01 in    
Wind  
Wind Speed 11 mph (West)    
Max Wind Speed 21 mph    
Max Gust Speed 20 mph    
Visibility 10 miles    
Events      
T = Trace of Precipitation, MM = Missing Value Source: NWS Daily Summary

Daily Weather History Graph

Daily Weather History Graph

Search for Another Location

Airport or City:

Trip Planner

Search our weather history database for the weather conditions in past years. The results will help you decide how hot, cold, wet, or windy it might be!

Date:

Astronomy

Feb. 12, 2014 Rise Set
Actual Time 7:39 AM CST 6:17 PM CST
Civil Twilight 7:12 AM CST 6:45 PM CST
Nautical Twilight 6:40 AM CST 7:16 PM CST
Astronomical Twilight 6:09 AM CST 7:48 PM CST
Moon 4:33 PM CST (2/12) 5:57 AM CST (2/12)
Length of Visible Light 11h 33m
Length of Day
10h 37m
Waxing Gibbous, 95% of the Moon is Illuminated
Feb 12
Waxing Gibbous
Feb 14
Full
Feb 22
Last Quarter
Mar 1
New
Mar 8
First Quarter

Hourly Weather History & Observations

Time (CST) Temp. Windchill Dew Point Humidity Pressure Visibility Wind Dir Wind Speed Gust Speed Precip Events Conditions
12:10 AM 32.0 °F 23.6 °F 32.0 °F 100% 29.98 in 10.0 mi SW 10.4 mph - N/A   Overcast
12:30 AM 32.0 °F 23.0 °F 32.0 °F 100% 29.98 in 10.0 mi SW 11.5 mph - N/A   Overcast
12:50 AM 32.0 °F 25.6 °F 32.0 °F 100% 29.99 in 10.0 mi WSW 6.9 mph - N/A   Overcast
1:10 AM 33.8 °F 26.4 °F 32.0 °F 93% 29.99 in 10.0 mi WSW 9.2 mph - N/A   Overcast
1:30 AM 35.6 °F 25.5 °F 32.0 °F 87% 30.00 in 10.0 mi West 17.3 mph - N/A   Overcast
1:50 AM 35.6 °F 26.6 °F 30.2 °F 81% 30.01 in 10.0 mi West 13.8 mph - N/A   Overcast
2:10 AM 33.8 °F 24.3 °F 30.2 °F 87% 30.02 in 10.0 mi WNW 13.8 mph 19.6 mph N/A   Overcast
2:30 AM 35.6 °F 24.8 °F 32.0 °F 87% 30.03 in 10.0 mi NW 19.6 mph - N/A   Overcast
2:50 AM 33.8 °F 22.2 °F 30.2 °F 87% 30.05 in 10.0 mi NW 20.7 mph - N/A   Mostly Cloudy
3:10 AM 33.8 °F 22.2 °F 30.2 °F 87% 30.06 in 10.0 mi NNW 20.7 mph - N/A   Scattered Clouds
3:30 AM 32.0 °F 21.6 °F 30.2 °F 93% 30.07 in 10.0 mi NNW 15.0 mph - N/A   Scattered Clouds
3:50 AM 33.8 °F 24.3 °F 30.2 °F 87% 30.06 in 10.0 mi NW 13.8 mph - N/A   Mostly Cloudy
4:10 AM 32.0 °F 22.5 °F 30.2 °F 93% 30.08 in 10.0 mi NW 12.7 mph - N/A   Scattered Clouds
4:30 AM 32.0 °F 23.0 °F 28.4 °F 87% 30.08 in 10.0 mi NW 11.5 mph - N/A   Scattered Clouds
4:50 AM 30.2 °F 21.3 °F 28.4 °F 93% 30.09 in 10.0 mi NW 10.4 mph - N/A   Clear
5:10 AM 30.2 °F 18.9 °F 28.4 °F 93% 30.09 in 10.0 mi NW 16.1 mph - N/A   Clear
5:30 AM 30.2 °F 20.2 °F 28.4 °F 93% 30.11 in 10.0 mi NW 12.7 mph - N/A   Clear
5:50 AM 28.4 °F 18.5 °F 28.4 °F 100% 30.13 in 10.0 mi NW 11.5 mph - N/A   Clear
6:10 AM 28.4 °F 18.0 °F 26.6 °F 93% 30.13 in 10.0 mi NW 12.7 mph - N/A   Clear
6:30 AM 28.4 °F 18.0 °F 26.6 °F 93% 30.13 in 10.0 mi NW 12.7 mph - N/A   Clear
6:50 AM 26.6 °F 15.7 °F 24.8 °F 93% 30.13 in 10.0 mi NW 12.7 mph - N/A   Clear
7:10 AM 26.6 °F 15.2 °F 24.8 °F 93% 30.13 in 10.0 mi NNW 13.8 mph - N/A   Clear
7:30 AM 26.6 °F 14.7 °F 24.8 °F 93% 30.13 in 10.0 mi NNW 15.0 mph - N/A   Clear
7:50 AM 24.8 °F 12.9 °F 23.0 °F 93% 30.14 in 10.0 mi NW 13.8 mph - N/A   Clear
8:10 AM 24.8 °F 14.6 °F 23.0 °F 93% 30.14 in 10.0 mi NW 10.4 mph - N/A   Clear
8:30 AM 24.8 °F 14.6 °F 23.0 °F 93% 30.13 in 10.0 mi NW 10.4 mph - N/A   Clear
8:50 AM 26.6 °F 16.8 °F 23.0 °F 86% 30.12 in 10.0 mi NNW 10.4 mph - N/A   Clear
9:10 AM 26.6 °F 16.2 °F 24.8 °F 93% 30.12 in 10.0 mi NNW 11.5 mph - N/A   Clear
9:30 AM 28.4 °F 18.0 °F 26.6 °F 93% 30.11 in 10.0 mi NNW 12.7 mph - N/A   Clear
9:50 AM 30.2 °F 20.8 °F 26.6 °F 86% 30.11 in 10.0 mi NNW 11.5 mph - N/A   Clear
10:10 AM 32.0 °F 23.0 °F 26.6 °F 80% 30.12 in 10.0 mi North 11.5 mph - N/A   Clear
10:30 AM 32.0 °F 23.0 °F 26.6 °F 80% 30.12 in 10.0 mi NNW 11.5 mph - N/A   Clear
10:50 AM 32.0 °F 22.5 °F 28.4 °F 87% 30.14 in 10.0 mi NNW 12.7 mph - N/A   Clear
11:10 AM 32.0 °F 25.6 °F 28.4 °F 87% 30.15 in 10.0 mi WNW 6.9 mph - N/A   Clear
11:30 AM 32.0 °F 27.5 °F 28.4 °F 87% 30.14 in 10.0 mi West 4.6 mph - N/A   Clear
11:50 AM 32.0 °F 24.8 °F 30.2 °F 93% 30.14 in 10.0 mi West 8.1 mph - N/A   Clear
12:10 PM 32.0 °F 24.8 °F 28.4 °F 87% 30.12 in 10.0 mi West 8.1 mph - N/A   Clear
12:30 PM 32.0 °F 26.4 °F 28.4 °F 87% 30.11 in 10.0 mi West 5.8 mph - N/A   Clear
12:50 PM 33.8 °F 27.7 °F 28.4 °F 81% 30.09 in 10.0 mi West 6.9 mph - N/A   Clear
1:10 PM 33.8 °F 28.6 °F 30.2 °F 87% 30.06 in 10.0 mi West 5.8 mph - N/A   Clear
1:30 PM 35.6 °F 29.9 °F 28.4 °F 75% 30.05 in 10.0 mi West 6.9 mph - N/A   Clear
1:50 PM 35.6 °F 29.9 °F 30.2 °F 81% 30.02 in 10.0 mi West 6.9 mph - N/A   Clear
2:10 PM 35.6 °F 29.9 °F 30.2 °F 81% 30.01 in 10.0 mi West 6.9 mph - N/A   Clear
2:30 PM 35.6 °F 30.7 °F 30.2 °F 81% 30.00 in 10.0 mi SW 5.8 mph - N/A   Clear
2:50 PM 35.6 °F 28.6 °F 30.2 °F 81% 30.00 in 10.0 mi SW 9.2 mph - N/A   Clear
3:10 PM 35.6 °F 30.7 °F 30.2 °F 81% 29.99 in 10.0 mi SW 5.8 mph - N/A   Clear
3:30 PM 35.6 °F 30.7 °F 32.0 °F 87% 29.98 in 10.0 mi SW 5.8 mph - N/A   Clear
3:50 PM 35.6 °F 32.8 °F 32.0 °F 87% 29.97 in 10.0 mi SSW 3.5 mph - N/A   Clear
4:10 PM 37.4 °F 31.4 °F 30.2 °F 75% 29.96 in 10.0 mi SSW 8.1 mph - N/A   Clear
4:30 PM 37.4 °F 30.8 °F 32.0 °F 81% 29.95 in 10.0 mi SSW 9.2 mph - N/A   Clear
4:50 PM 37.4 °F 31.4 °F 32.0 °F 81% 29.93 in 10.0 mi South 8.1 mph - N/A   Clear
5:10 PM 37.4 °F 30.8 °F 32.0 °F 81% 29.91 in 10.0 mi South 9.2 mph - N/A   Clear
5:30 PM 37.4 °F 30.8 °F 32.0 °F 81% 29.91 in 10.0 mi SSW 9.2 mph - N/A   Clear
5:50 PM 37.4 °F 30.8 °F 32.0 °F 81% 29.90 in 10.0 mi South 9.2 mph - N/A   Clear
6:10 PM 35.6 °F 28.6 °F 32.0 °F 87% 29.89 in 10.0 mi South 9.2 mph - N/A   Clear
6:30 PM 35.6 °F 28.6 °F 32.0 °F 87% 29.89 in 10.0 mi South 9.2 mph - N/A   Scattered Clouds
6:50 PM 33.8 °F 28.6 °F 32.0 °F 93% 29.90 in 10.0 mi SSW 5.8 mph - N/A   Scattered Clouds
7:10 PM 33.8 °F 25.8 °F 32.0 °F 93% 29.88 in 10.0 mi South 10.4 mph - N/A   Clear
7:30 PM 33.8 °F 25.3 °F 32.0 °F 93% 29.88 in 10.0 mi South 11.5 mph - N/A   Clear
7:55 PM 33.8 °F 24.8 °F 30.2 °F 87% 29.87 in 10.0 mi South 12.7 mph - N/A   Clear
8:15 PM 33.8 °F 25.8 °F 30.2 °F 87% 29.87 in 10.0 mi SSW 10.4 mph - N/A   Clear
8:30 PM 33.8 °F 25.8 °F 30.2 °F 87% 29.87 in 10.0 mi SSW 10.4 mph - N/A   Clear
8:50 PM 33.8 °F 25.8 °F 30.2 °F 87% 29.87 in 10.0 mi SSW 10.4 mph - N/A   Clear
9:15 PM 33.8 °F 25.8 °F 30.2 °F 87% 29.86 in 10.0 mi SSW 10.4 mph - N/A   Clear
9:35 PM 32.0 °F 24.2 °F 30.2 °F 93% 29.85 in 10.0 mi SW 9.2 mph - N/A   Clear
9:50 PM 32.0 °F 24.2 °F 30.2 °F 93% 29.85 in 10.0 mi SSW 9.2 mph - N/A   Clear
10:15 PM 32.0 °F 23.6 °F 30.2 °F 93% 29.84 in 10.0 mi SSW 10.4 mph - N/A   Clear
10:35 PM 32.0 °F 24.2 °F 30.2 °F 93% 29.84 in 10.0 mi SW 9.2 mph - N/A   Clear
10:55 PM 33.8 °F 22.8 °F 30.2 °F 87% 29.83 in 10.0 mi SSW 18.4 mph - N/A   Clear
11:15 PM 33.8 °F 23.9 °F 30.2 °F 87% 29.82 in 10.0 mi SSW 15.0 mph - N/A   Clear
11:35 PM 33.8 °F 24.8 °F 30.2 °F 87% 29.82 in 10.0 mi SSW 12.7 mph - N/A   Clear
11:55 PM 33.8 °F 25.8 °F 30.2 °F 87% 29.82 in 10.0 mi SSW 10.4 mph - N/A   Clear